Location: Hartman Creek State Park
(44.3257°N, 89.2134°W)
Time: 09:28:34
(UTC-05:00)

Terra - Visible Passes

Search period start: 01 April 2015 00:00
Search period end: 11 April 2015 00:00
Orbit: 701 x 703 km, 98.2° (Epoch: 01 April)

Date Brightness Start Highest point End Pass type
(mag) Time Alt. Az. Time Alt. Az. Time Alt. Az.
01 Apr 3.3 22:24:57 29° NNE 22:24:57 29° NNE 22:27:32 10° N visible
02 Apr 4.6 00:03:49 13° NW 00:03:49 13° NW 00:04:34 10° NW visible
02 Apr 3.8 21:29:13 15° NE 21:29:13 15° NE 21:31:12 10° NNE visible
02 Apr 3.6 23:08:06 29° NNW 23:08:06 29° NNW 23:10:28 10° NNW visible
03 Apr 3.2 22:12:23 28° NNE 22:12:23 28° NNE 22:15:09 10° N visible
03 Apr 4.3 23:51:16 17° NW 23:51:16 17° NW 23:52:41 10° NW visible
04 Apr 4.0 21:16:39 12° NE 21:16:39 12° NE 21:18:09 10° NE visible
04 Apr 3.3 22:55:32 34° NNW 22:55:32 34° NNW 22:58:14 10° NNW visible
05 Apr 3.3 21:59:49 25° NE 21:59:49 25° NE 22:02:42 10° N visible
05 Apr 4.0 23:38:41 22° NW 23:38:41 22° NW 23:40:42 10° NNW visible
06 Apr 3.0 22:42:58 38° N 22:42:58 38° N 22:45:59 10° N visible
07 Apr 4.7 00:21:50 10° WNW 00:21:50 10° WNW 00:21:58 10° WNW visible
07 Apr 3.4 21:47:14 21° NE 21:47:14 21° NE 21:50:10 10° NNE visible
07 Apr 3.6 23:26:07 28° NW 23:26:07 28° NW 23:28:38 10° NNW visible
08 Apr 2.8 22:30:24 38° NNE 22:30:24 38° NNE 22:33:40 10° N visible
09 Apr 4.4 00:09:16 14° WNW 00:09:16 14° WNW 00:10:24 10° NW visible
09 Apr 3.6 21:34:40 17° ENE 21:34:40 17° ENE 21:37:31 10° NNE visible
09 Apr 3.2 23:13:33 36° NW 23:13:33 36° NW 23:16:29 10° NNW visible
10 Apr 2.8 22:17:48 35° NE 22:17:48 35° NE 22:21:17 10° N visible
10 Apr 4.1 23:56:42 19° WNW 23:56:42 19° WNW 23:58:34 10° NW visible
